181  
ASUS45 KSLC 210010  
RWRUT  
 
UTAH REGIONAL WEATHER ROUNDUP  
NATIONAL WEATHER SERVICE SALT LAKE CITY UT  
500 PM MST THU FEB 20 2020  
 
UTZ001>011-023>025-210100-  
 
NORTHERN UTAH  
 
CITY SKY/WX TMP DP RH WIND PRES REMARKS
 
BRIGHAM CITY N/A 32 12 42 N7 30.43F WCI 26  
DUGWAY MOSUNNY 39 15 37 NW5 30.41F  
6HR MIN TEMP: 30; 6HR MAX TEMP: 40;  
 
HILL AFB N/A 35 8 32 N7 30.39F WCI 29  
LOGAN N/A 26 14 60 SW6 30.44F WCI 19  
OGDEN N/A 36 8 31 N8 30.40S WCI 30  
SALT LAKE CITY N/A 39 11 31 N6 30.40F WCI 35  
TOOELE VALLEY N/A 34 19 55 N3 30.42F  
WENDOVER N/A 34 8 33 E3 30.42F  
HEBER CITY N/A 34 9 35 N6 30.36S WCI 29  
WEST JORDAN N/A 38 19 46 N6 30.40S WCI 34  
 

 
 
UTZ011>015-024>027-210100-  
 
CENTRAL/NORTHEAST UTAH  
 
CITY SKY/WX TMP DP RH WIND PRES REMARKS
 
PROVO AIRPORT N/A 36 17 46 W3 30.39F  
MOAB/CANYONLAN N/A 40 5 23 NW7 30.41F  
DELTA N/A 41 7 24 CALM 30.36F  
PRICE N/A 38 -5 16 SW6 30.40F WCI 33  
ROOSEVELT N/A 32 9 37 S3 30.51F  
DUCHESNE CLEAR 28 3 34 E8 30.46F WCI 20  
VERNAL N/A 27 11 51 E3 30.50S  
 

 
 
UTZ013>016-019>022-027-210100-  
 
SOUTHERN UTAH  
 
CITY SKY/WX TMP DP RH WIND PRES REMARKS
 
BRYCE CANYON N/A 33 12 41 S10 30.34F WCI 25  
CEDAR CITY N/A 47 9 21 N3 30.27F  
MILFORD N/A 42 10 27 N12 30.31F  
ST GEORGE N/A 60 12 15 VRB5 30.23F  
HANKSVILLE N/A 41 -4 15 E6 30.45F  
BLANDING N/A 45 4 18 NE6 30.43F  
 

 
 
REGIONAL REPORTS COLORADO/ARIZONA  
 
CITY SKY/WX TMP DP RH WIND PRES REMARKS
 
CRAIG, CO N/A 4 -5 66 CALM 30.49F  
GRAND JUNCTION N/A 43 -6 12 CALM 30.40F  
RIFLE, CO N/A 36 3 25 E3 30.42F  
MONTROSE, CO N/A 41 8 25 N5 30.42S  
CORTEZ, CO N/A 47 0 14 SW8 30.36S  
COLORADO CITY N/A 55 9 15 E12 30.30S  
PAGE, AZ N/A 48 -4 11 NE6 30.35F  
GRAND CANYON N/A 46 8 21 NE15 30.31F  
KINGMAN, AZ N/A 64 18 17 N9 30.17F  
FLAGSTAFF, AZ N/A 46 9 22 E13 30.30R  
 

 
 
REGIONAL REPORTS NEVADA/IDAHO/WYOMING  
 
CITY SKY/WX TMP DP RH WIND PRES REMARKS
 
LAS VEGAS, NV N/A 64 10 12 NE5 30.19F  
ELY, NY N/A 45 2 17 NE9 30.27F  
ELKO, NV N/A 45 11 25 NE7 30.28F  
POCATELLO, ID N/A 30 11 45 N15 30.41F WCI 19  
BURLEY, ID N/A 37 15 40 NE15 30.35F WCI 28  
EVANSTON, WY N/A 14 0 53 NE5 30.39S WCI 6  
ROCK SPRINGS, N/A 20 7 57 SW3 30.42F  
KEMMERER, WY N/A 10 3 72 CALM 30.41F  
 

 
 
 
CLICK HERE TO GO TO PREVIOUS BULLETINS.

The Nexlab UT Page Main Text Page